Hanford, WA
on Monday, December 10, 2012

Monday
Previous Day Next Day
Daily Summary
 ActualAverage (KMWH)Record (KMWH)
Temperature
Mean Temperature °F 29°F  
Max Temperature 33°F 35°F 55°F (2004)
Min Temperature 27°F 23°F 6°F (2013)
Degree Days
Heating Degree Days 35 36  
Month to date heating degree days 347  
Since 1 July heating degree days 1808  
Cooling Degree Days 0 0  
Month to date cooling degree days 0  
Year to date cooling degree days 615  
Moisture
Dew Point 31°F   
Average Humidity 99    
Maximum Humidity 100    
Minimum Humidity 94    
Precipitation
Precipitation 0.00 in 0.04 in 0.23 in (1983)
Month to date precipitation 0.37  
Year to date precipitation 8.04  
Wind
Wind Speed 4 mph   
Max Wind Speed 7 mph   
Max Gust Speed mph   
Visibility 3 miles   
Events Fog   

Key: T is trace of precipitation, MM is missing value
Source: NWS Daily Summary
Time(PST)TemperatureDew PointHumidity Pressure Visibility Wind DirectionWind SpeedGust SpeedPrecipitationEvents Conditions
12:50 AM 28.9°F 28.0°F 96% 30.22 in 15.0 miles North 6.9 mph - N/A   Clear
1:50 AM 27.3°F 25.9°F 94% 30.23 in 15.0 miles ESE 3.5 mph - N/A   Scattered Clouds
2:50 AM 32.5°F 32.2°F 99% 30.28 in 15.0 miles ESE 3.5 mph - N/A   Mostly Cloudy
3:50 AM 32.4°F 32.0°F 99% 30.29 in 8.0 miles South 3.5 mph - N/A   Overcast
4:50 AM 31.1°F 30.6°F 98% 30.32 in 4.0 miles South 2.3 mph - N/A   Overcast
5:50 AM 30.6°F 30.4°F 99% 30.32 in 3.0 miles East 3.5 mph - N/A   Mist
6:50 AM 31.5°F 31.1°F 99% 30.33 in 4.0 miles ESE 4.6 mph - N/A   Overcast
7:50 AM 28.0°F 27.5°F 98% 30.34 in 0.1 miles East 5.8 mph - N/A Fog Light Freezing Fog
8:50 AM 30.9°F 30.9°F 100% 30.34 in 0.5 miles ESE 5.8 mph - N/A Fog Light Freezing Fog
9:50 AM 30.9°F 30.7°F 99% 30.32 in 0.8 miles ENE 5.8 mph - N/A   Mist
10:50 AM 32.0°F 32.0°F 100% 30.32 in 0.1 miles SSE 4.6 mph - N/A Fog Fog
11:50 AM 32.9°F 32.9°F 100% 30.30 in 0.2 miles South 4.6 mph - N/A Fog Fog
12:50 PM 33.3°F 33.3°F 100% 30.27 in 0.5 miles NE 4.6 mph - N/A Fog Fog
1:50 PM 33.3°F 33.3°F 100% 30.26 in 0.5 miles East 3.5 mph - N/A Fog Fog
2:50 PM 33.4°F 33.3°F 99% 30.25 in 0.8 miles North 4.6 mph - N/A   Mist
3:50 PM 33.1°F 33.1°F 100% 30.22 in 0.1 miles NW 4.6 mph - N/A Fog Fog
4:50 PM 32.2°F 32.2°F 100% 30.21 in 0.1 miles NE 2.3 mph - N/A Fog Fog
5:50 PM 31.6°F 31.6°F 100% 30.19 in 0.1 miles SE 2.3 mph - N/A Fog Light Freezing Fog
6:50 PM 31.1°F 31.1°F 100% 30.18 in 0.1 miles NNE 2.3 mph - N/A Fog Light Freezing Fog
9:50 PM 30.9°F 30.9°F 100% 30.11 in 0.1 miles East 3.5 mph - N/A Fog Light Freezing Fog
10:50 PM 30.9°F 30.9°F 100% 30.09 in 0.1 miles ESE 2.3 mph - N/A Fog Light Freezing Fog
11:50 PM 31.8°F 31.8°F 100% 30.06 in 0.1 miles SE 3.5 mph - N/A Fog Light Freezing Fog
Moon Phase
Dec. 10 Dec. 13 Dec. 20 Dec. 28 Jan. 04
Sunrise:07:32 AM (PST) Moon Rise:04:14 AM (PST)12/10
Sunset:04:10 PM (PST) Moon Set:02:09 PM (PST)12/10

Copyright © 2014 The Weather Underground, Inc.